Weather History for Pittsburgh, PA

Change the Weather History Date:

Wednesday, October 19, 2011

  Actual Average Record
Temperature  
Mean Temperature 57 °F 52 °F  
Max Temperature 66 °F 62 °F 82 °F (1963)
Min Temperature 48 °F 42 °F 26 °F (1972)
Degree Days  
Heating Degree Days 8 13  
Month to date heating degree days 137 205  
Since 1 July heating degree days 223 319  
Cooling Degree Days 0 0  
Month to date cooling degree days 0 6  
Year to date cooling degree days 1009 734  
Growing Degree Days 7 (Base 50)    
Moisture  
Dew Point 49 °F    
Average Humidity 71    
Maximum Humidity 83    
Minimum Humidity 59    
Precipitation  
Precipitation 0.07 in 0.07 in 1.56 in (1916)
Month to date precipitation 3.14 1.36  
Year to date precipitation 36.76 31.18  
Snow  
Snow 0.00 in 0.00 in 0.90 in (1992)
Month to date snowfall 0.0 0.1  
Since 1 July snowfall 0.0 0.1  
Snow Depth 0.00 in    
Sea Level Pressure  
Sea Level Pressure 29.42 in    
Wind  
Wind Speed 11 mph (ESE)    
Max Wind Speed 23 mph    
Max Gust Speed 33 mph    
Visibility 9 miles    
Events Rain    
T = Trace of Precipitation, MM = Missing Value Source: NWS Daily Summary

Daily Weather History Graph

Daily Weather History Graph

Search for Another Location

Airport:

Trip Planner

Search our weather history database for the weather conditions in past years. The results will help you decide how hot, cold, wet, or windy it might be!

Date:

Astronomy

Oct. 19, 2011 Rise Set
Actual Time 7:35 AM EDT 6:35 PM EDT
Civil Twilight 7:08 AM EDT 7:02 PM EDT
Nautical Twilight 6:36 AM EDT 7:34 PM EDT
Astronomical Twilight 6:04 AM EDT 8:06 PM EDT
Moon No Moon Rise 2:06 PM EDT (10/19)
Length of Visible Light 11h 54m
Length of Day
10h 59m
Waning Gibbous, 55% of the Moon is Illuminated
Oct 19
Waning Gibbous
Oct 19
Last Quarter
Oct 26
New
Nov 2
First Quarter
Nov 10
Full

Hourly Weather History & Observations

Time (EDT) Temp. Dew Point Humidity Pressure Visibility Wind Dir Wind Speed Gust Speed Precip Events Conditions
12:51 AM 54.0 °F 39.0 °F 57% 29.65 in 10.0 mi Calm Calm - N/A   Mostly Cloudy
1:51 AM 55.0 °F 41.0 °F 59% 29.63 in 10.0 mi East 3.5 mph - N/A   Mostly Cloudy
2:51 AM 53.1 °F 42.1 °F 66% 29.63 in 10.0 mi North 10.4 mph - N/A   Mostly Cloudy
3:51 AM 50.0 °F 39.9 °F 68% 29.62 in 10.0 mi North 6.9 mph - N/A   Mostly Cloudy
4:51 AM 50.0 °F 39.9 °F 68% 29.59 in 10.0 mi North 9.2 mph - N/A   Mostly Cloudy
5:51 AM 48.9 °F 41.0 °F 74% 29.58 in 10.0 mi North 4.6 mph - N/A   Scattered Clouds
6:51 AM 48.9 °F 41.0 °F 74% 29.57 in 10.0 mi Calm Calm - N/A   Mostly Cloudy
7:51 AM 50.0 °F 45.0 °F 83% 29.56 in 10.0 mi East 3.5 mph - N/A   Mostly Cloudy
8:51 AM 55.9 °F 50.0 °F 80% 29.55 in 8.0 mi East 5.8 mph - N/A   Mostly Cloudy
9:51 AM 60.1 °F 52.0 °F 75% 29.54 in 10.0 mi East 10.4 mph - N/A   Mostly Cloudy
10:51 AM 64.9 °F 51.1 °F 61% 29.50 in 10.0 mi ESE 18.4 mph 24.2 mph N/A   Mostly Cloudy
11:51 AM 64.9 °F 51.1 °F 61% 29.49 in 10.0 mi ESE 17.3 mph 26.5 mph N/A   Overcast
12:51 PM 64.9 °F 50.0 °F 58% 29.46 in 10.0 mi SE 16.1 mph 24.2 mph N/A   Overcast
1:06 PM 62.6 °F 53.6 °F 72% 29.43 in 3.0 mi ESE 17.3 mph 24.2 mph 0.01 in Rain Light Rain
1:10 PM 62.6 °F 53.6 °F 72% 29.43 in 10.0 mi ESE 11.5 mph 23.0 mph 0.01 in Rain Light Rain
2:51 PM 64.9 °F 53.1 °F 65% 29.35 in 10.0 mi East 16.1 mph - N/A   Overcast
3:51 PM 66.0 °F 53.1 °F 63% 29.31 in 10.0 mi ESE 17.3 mph 27.6 mph N/A   Overcast
4:51 PM 66.0 °F 54.0 °F 65% 29.28 in 10.0 mi East 16.1 mph 26.5 mph N/A   Overcast
5:51 PM 64.9 °F 54.0 °F 68% 29.24 in 10.0 mi ESE 23.0 mph 33.4 mph N/A   Overcast
6:51 PM 64.0 °F 55.0 °F 73% 29.22 in 10.0 mi ESE 15.0 mph 28.8 mph N/A   Overcast
7:51 PM 64.0 °F 55.0 °F 73% 29.21 in 10.0 mi ESE 12.7 mph - N/A   Overcast
8:51 PM 59.0 °F 54.0 °F 83% 29.23 in 9.0 mi SSW 18.4 mph 27.6 mph 0.01 in Rain Light Rain
8:53 PM 59.0 °F 53.6 °F 82% 29.21 in 10.0 mi SSW 18.4 mph 27.6 mph 0.00 in Rain Light Rain
9:21 PM 55.4 °F 51.8 °F 88% 29.25 in 4.0 mi SSW 18.4 mph 28.8 mph 0.01 in Rain Rain
9:51 PM 54.0 °F 48.0 °F 80% 29.28 in 10.0 mi SW 15.0 mph 31.1 mph 0.02 in   Overcast
10:51 PM 53.1 °F 48.0 °F 83% 29.29 in 10.0 mi SSW 10.4 mph 18.4 mph N/A   Overcast
11:51 PM 52.0 °F 48.0 °F 86% 29.28 in 10.0 mi SSW 5.8 mph - 0.01 in Rain Light Rain